Weather History for Mansfield, OH

Change the Weather History Date:

Thursday, March 21, 2013

  Actual Average Record
Temperature  
Mean Temperature 22 °F 39 °F  
Max Temperature 29 °F 48 °F 82 °F (2012)
Min Temperature 15 °F 30 °F 12 °F (1986)
Degree Days  
Heating Degree Days 43 26  
Month to date heating degree days 688 626  
Since 1 July heating degree days 5061 5251  
Cooling Degree Days 0 0  
Month to date cooling degree days 0 0  
Year to date cooling degree days 0 0  
Moisture  
Dew Point 15 °F    
Average Humidity 71    
Maximum Humidity 80    
Minimum Humidity 62    
Precipitation  
Precipitation T in 0.12 in 1.33 in (1955)
Month to date precipitation 1.49 2.15  
Year to date precipitation 6.22 7.41  
Snow  
Snow 0.10 in 0.20 in - ()
Month to date snowfall 4.9 6.1  
Since 1 July snowfall 34.7 44.0  
Snow Depth 0.00 in    
Sea Level Pressure  
Sea Level Pressure 29.91 in    
Wind  
Wind Speed 10 mph (West)    
Max Wind Speed 17 mph    
Max Gust Speed 21 mph    
Visibility 7 miles    
Events Snow    
T = Trace of Precipitation, MM = Missing Value Source: NWS Daily Summary

Daily Weather History Graph

Daily Weather History Graph

Search for Another Location

Airport:

Trip Planner

Search our weather history database for the weather conditions in past years. The results will help you decide how hot, cold, wet, or windy it might be!

Date:

Astronomy

Mar. 21, 2013 Rise Set
Actual Time 7:31 AM EDT 7:43 PM EDT
Civil Twilight 7:04 AM EDT 8:10 PM EDT
Nautical Twilight 6:32 AM EDT 8:43 PM EDT
Astronomical Twilight 5:59 AM EDT 9:15 PM EDT
Moon 2:10 PM EDT (3/21) 3:54 AM EDT (3/21)
Length of Visible Light 13h 06m
Length of Day
12h 12m
Waxing Gibbous, 68% of the Moon is Illuminated
Mar 21
Waxing Gibbous
Mar 27
Full
Apr 3
Last Quarter
Apr 10
New
Apr 18
First Quarter

Hourly Weather History & Observations

Time (EDT) Temp. Windchill Dew Point Humidity Pressure Visibility Wind Dir Wind Speed Gust Speed Precip Events Conditions
12:52 AM 19.0 °F 10.0 °F 9.0 °F 65% 29.96 in 10.0 mi WNW 6.9 mph - N/A   Overcast
1:52 AM 17.1 °F 11.7 °F 9.0 °F 71% 29.95 in 10.0 mi Variable 3.5 mph - N/A   Partly Cloudy
2:52 AM 16.0 °F 7.4 °F 9.0 °F 74% 29.94 in 10.0 mi West 5.8 mph - N/A   Clear
3:52 AM 16.0 °F 6.3 °F 9.0 °F 74% 29.93 in 10.0 mi West 6.9 mph - N/A   Clear
4:52 AM 16.0 °F 6.3 °F 9.0 °F 74% 29.92 in 10.0 mi West 6.9 mph - N/A   Clear
5:52 AM 16.0 °F 6.3 °F 10.0 °F 77% 29.91 in 10.0 mi West 6.9 mph - N/A   Overcast
6:52 AM 16.0 °F 5.3 °F 10.0 °F 77% 29.92 in 10.0 mi West 8.1 mph - N/A   Scattered Clouds
7:52 AM 16.0 °F 6.3 °F 10.9 °F 81% 29.91 in 10.0 mi West 6.9 mph - N/A   Partly Cloudy
8:52 AM 18.0 °F 6.1 °F 12.0 °F 78% 29.92 in 10.0 mi West 10.4 mph - N/A   Partly Cloudy
9:52 AM 21.0 °F 10.6 °F 12.0 °F 68% 29.92 in 10.0 mi WSW 9.2 mph - N/A   Mostly Cloudy
10:37 AM 21.2 °F 8.9 °F 12.2 °F 68% 29.87 in 8.0 mi West 12.7 mph 17.3 mph N/A   Overcast
10:52 AM 21.0 °F 8.6 °F 12.0 °F 68% 29.93 in 6.0 mi West 12.7 mph 18.4 mph 0.00 in Snow Light Snow
11:32 AM 21.2 °F 10.1 °F 14.0 °F 74% 29.88 in 2.5 mi West 10.4 mph 17.3 mph 0.00 in Snow Light Snow
11:33 AM 21.2 °F 10.1 °F 15.8 °F 80% 29.88 in 2.5 mi West 10.4 mph 17.3 mph 0.00 in Snow Light Snow
11:34 AM 23.0 °F 12.4 °F 15.8 °F 74% 29.88 in 3.0 mi West 10.4 mph 17.3 mph 0.00 in Snow Light Snow
11:52 AM 21.9 °F 9.8 °F 14.0 °F 72% 29.94 in 8.0 mi WSW 12.7 mph - 0.00 in   Overcast
12:52 PM 24.1 °F 12.5 °F 14.0 °F 65% 29.93 in 9.0 mi WSW 12.7 mph 20.7 mph 0.00 in   Overcast
1:13 PM 24.8 °F 14.0 °F 15.8 °F 69% 29.87 in 2.0 mi West 11.5 mph 19.6 mph 0.00 in Snow Light Snow
1:41 PM 26.6 °F 16.2 °F 17.6 °F 69% 29.87 in 5.0 mi West 11.5 mph - 0.00 in Snow Light Snow
1:52 PM 25.0 °F 13.1 °F 18.0 °F 75% 29.93 in 1.8 mi WSW 13.8 mph 20.7 mph 0.00 in Snow Light Snow
2:06 PM 26.6 °F 15.2 °F 17.6 °F 69% 29.87 in 2.0 mi West 13.8 mph 17.3 mph 0.00 in Snow Light Snow
2:22 PM 26.6 °F 16.8 °F 19.4 °F 74% 29.87 in 3.0 mi West 10.4 mph - 0.00 in Snow Light Snow
2:31 PM 26.6 °F 13.8 °F 19.4 °F 74% 29.86 in 2.0 mi West 17.3 mph 23.0 mph 0.00 in Snow Light Snow
2:52 PM 27.0 °F 16.1 °F 19.0 °F 72% 29.92 in 3.0 mi West 12.7 mph 24.2 mph 0.00 in Snow Light Snow
3:11 PM 26.6 °F 15.7 °F 19.4 °F 74% 29.86 in 4.0 mi West 12.7 mph 19.6 mph 0.00 in Snow Light Snow
3:28 PM 28.4 °F 18.0 °F 19.4 °F 69% 29.87 in 5.0 mi West 12.7 mph - 0.00 in Snow Light Snow
3:52 PM 27.0 °F 16.7 °F 19.0 °F 72% 29.92 in 8.0 mi West 11.5 mph 18.4 mph 0.00 in Snow Light Snow
4:52 PM 28.0 °F 18.1 °F 18.0 °F 66% 29.93 in 9.0 mi West 11.5 mph 19.6 mph 0.00 in Snow Light Snow
4:59 PM 28.4 °F 18.0 °F 17.6 °F 64% 29.87 in 9.0 mi West 12.7 mph 19.6 mph 0.00 in Snow Light Snow
5:48 PM 26.6 °F 16.8 °F 19.4 °F 74% 29.88 in 5.0 mi West 10.4 mph 19.6 mph 0.00 in Snow Light Snow
5:52 PM 27.0 °F 18.0 °F 19.9 °F 75% 29.94 in 6.0 mi West 9.2 mph 19.6 mph 0.00 in Snow Light Snow
6:52 PM 27.0 °F 16.1 °F 19.9 °F 75% 29.94 in 5.0 mi West 12.7 mph 18.4 mph 0.00 in Snow Light Snow
7:52 PM 27.0 °F 17.3 °F 19.9 °F 75% 29.96 in 8.0 mi West 10.4 mph - 0.00 in Snow Light Snow
8:52 PM 27.0 °F 19.5 °F 19.0 °F 72% 29.95 in 9.0 mi West 6.9 mph - 0.00 in Snow Light Snow
9:52 PM 27.0 °F 17.3 °F 18.0 °F 69% 29.96 in 9.0 mi West 10.4 mph - 0.00 in Snow Light Snow
10:52 PM 27.0 °F 17.3 °F 16.0 °F 63% 29.97 in 9.0 mi West 10.4 mph 20.7 mph 0.00 in Snow Light Snow
11:52 PM 26.1 °F 16.2 °F 15.1 °F 63% 29.97 in 9.0 mi West 10.4 mph 19.6 mph 0.00 in Snow Light Snow